Regional Weather Roundup
Issued by NWS State College, PA

Home | Current Version | Previous Version | Text Only | Print | Product List | Glossary On
Versions: 1 2 3 4 5 6 7 8 9 10 11 12 13 14 15 16 17 18 19 20 21 22 23 24 25 26 27 28 29 30 31 32 33 34 35 36 37 38 39 40 41 42 43 44 45 46 47 48 49 50
000
ASUS41 KCTP 210310
RWRCTP

REGIONAL WEATHER ROUNDUP
NATIONAL WEATHER SERVICE STATE COLLEGE PA
1100 PM EDT FRI OCT 20 2017

Note: "fair" indicates few or no clouds below 12,000 feet with no
significant weather and/or obstructions to visibility.

* = STATION THAT DOES NOT REPORT PRECIPITATION /E.G. RAIN...SNOW...ETC/
    THUNDER OR FOG.

PAZ002>004-007>009-013>016-020>023-029>032-210400-
WESTERN PENNSYLVANIA

CITY           SKY/WX    TMP DP  RH WIND       PRES   REMARKS
ERIE           CLEAR     57  38  48 SW5       30.21R
MEADVILLE      CLEAR     57  35  43 S7        30.25R
FRANKLIN*      CLEAR     52  36  54 S3        30.26R
NEW CASTLE     FAIR      46  41  82 CALM      30.26R
BEAVER COUNTY  NOT AVBL
BUTLER*        CLOUDY    47  41  80 CALM      30.27R
PITTSBURGH INT CLOUDY    53  40  61 CALM      30.26R
PITTSBURGH     CLEAR     55  39  54 S6        30.26R
INDIANA*       PTCLDY    46  41  81 CALM      30.30R
LATROBE        CLEAR     48  41  76 CALM      30.28R
WASHINGTON CO* CLOUDY    47  42  83 CALM      30.29R
$$

PAZ004>006-010>012-017>019-024>028-033>037-041-042-045-046-049>053-210400-
CENTRAL PENNSYLVANIA

CITY           SKY/WX    TMP DP  RH WIND       PRES   REMARKS
BRADFORD       CLEAR     42  37  82 CALM      30.26R
DUBOIS           N/A    N/A N/A N/A MISG      30.26R
CLEARFIELD     CLEAR     49  38  65 NW3       30.27R
JOHNSTOWN      CLEAR     57  33  40 SW3       30.29R
ALTOONA        CLEAR     50  41  71 CALM      30.28R
STATE COLLEGE  PTCLDY    51  40  65 CALM      30.26R
WILLIAMSPORT   CLEAR     48  42  80 CALM      30.24R
SELINSGROVE    CLEAR     45  44  97 CALM      30.25R
FT INDIANTOWN  CLEAR     48  42  81 CALM      30.24R
CAPITAL CITY   CLEAR     51  43  74 W3        30.25R
HARRISBURG     CLEAR     51  48  89 CALM      30.24R
YORK           CLEAR     45  44  97 CALM      30.25R
$$

PAZ038>040-043-044-047-048-054-055-060>062-067>071-210400-
EASTERN PENNSYLVANIA

CITY           SKY/WX    TMP DP  RH WIND       PRES   REMARKS
SCRANTON       CLEAR     52  36  54 E7        30.25R
MOUNT POCONO   CLEAR     50  33  52 W6        30.25R
ALLENTOWN      CLEAR     52  39  61 S3        30.23R
QUAKERTOWN*    CLEAR     46  41  81 CALM      30.24R
READING        CLEAR     51  43  74 CALM      30.23R
LANCASTER      CLEAR     48  44  86 E6        30.25R
COATESVILLE    CLEAR     59  36  41 NW3       30.26R
POTTSTOWN      CLEAR     50  43  77 CALM      30.25R
BLUE BELL      CLEAR     45  43  93 CALM      30.25R
DOYLESTOWN     CLEAR     51  40  65 CALM      30.23R
WILLOW GROVE   NOT AVBL
NORTH PHILA    CLEAR     57  41  55 CALM      30.24R
PHILADELPHIA   CLEAR     61  39  44 CALM      30.23R
$$




USA.gov is the U.S. government's official web portal to all federal, state and local government web resources and services.